Location: Warwick
(41.7000°N, 71.4170°W)
Time: 00:57:35
(UTC-05:00)

BREEZE-M DEB (TANK) - Visible Passes

Search period start: 25 November 2017 00:00
Search period end: 05 December 2017 00:00
Orbit: 285 x 15853 km, 49.5° (Epoch: 23 November)

Date Brightness Start Highest point End Pass type
(mag) Time Alt. Az. Time Alt. Az. Time Alt. Az.
25 Nov 8.0 02:39:53 10° S 03:26:21 52° E 05:40:32 10° NE visible
26 Nov 7.9 02:39:47 10° S 03:25:35 54° E 05:41:33 10° NE visible
27 Nov 7.9 02:39:42 10° S 03:24:51 55° E 05:42:32 10° ENE visible
28 Nov 7.9 02:39:38 10° S 03:24:12 57° ESE 05:43:30 10° ENE visible
29 Nov 7.9 02:39:34 10° S 03:23:35 58° ESE 05:44:27 10° ENE visible
30 Nov 7.8 02:39:30 10° S 03:23:01 60° ESE 05:45:24 10° ENE visible
01 Dec 7.8 02:39:27 10° S 03:22:30 61° ESE 05:46:19 10° ENE visible
02 Dec 7.8 02:39:24 10° S 03:22:02 63° ESE 05:47:13 10° ENE visible
03 Dec 7.7 02:39:21 10° S 03:21:37 64° ESE 05:48:07 10° ENE visible
04 Dec 7.7 02:39:18 10° SSW 03:21:14 66° ESE 05:48:59 10° ENE visible
